This is the latest recevied weather packets stored in our database for station/object IZ1UQG-1. If no packets are shown the sender has not sent any weather packets the latest 10 day(s).
| Time | Temp. | Humidity | Pressure | Rain* | Wind** | Luminosity | Snow |
|---|---|---|---|---|---|---|---|
| 1777885138 | 21.11° C | 48% | 1017.1 hPa | 33.78 mm | - | - | - |
| 1777884838 | 21.11° C | 49% | 1017.2 hPa | 116.33 mm | - | - | - |
| 1777884538 | 20.56° C | 51% | 1017.2 hPa | 112.01 mm | - | - | - |
| 1777884238 | 20.56° C | 50% | 1017.3 hPa | 116.33 mm | - | - | - |
| 1777883938 | 20.56° C | 51% | 1017.2 hPa | 115.32 mm | - | - | - |
| 1777883638 | 20.56° C | 51% | 1017.2 hPa | 129.79 mm | - | - | - |
| 1777883338 | 20° C | 52% | 1017.2 hPa | 95 mm | - | - | - |
| 1777883038 | 20° C | 52% | 1017.4 hPa | 118.87 mm | - | - | - |
| 1777882738 | 19.44° C | 53% | 1017.5 hPa | 101.85 mm | - | - | - |
| 1777882438 | 19.44° C | 53% | 1017.4 hPa | 137.92 mm | - | - | - |
| 1777882138 | 19.44° C | 54% | 1017.4 hPa | 113.03 mm | - | - | - |
| 1777881838 | 18.89° C | 54% | 1017.5 hPa | 138.94 mm | - | - | - |
| 1777881538 | 18.89° C | 54% | 1017.5 hPa | 90.93 mm | - | - | - |
| 1777881238 | 18.89° C | 54% | 1017.7 hPa | 188.72 mm | - | - | - |
| 1777880938 | 18.33° C | 54% | 1017.6 hPa | 143.76 mm | - | - | - |
| 1777880638 | 18.33° C | 55% | 1017.6 hPa | 157.23 mm | - | - | - |
| 1777880338 | 18.33° C | 55% | 1017.7 hPa | 138.94 mm | - | - | - |
| 1777880038 | 18.33° C | 55% | 1017.6 hPa | 213.11 mm | - | - | - |
| 1777879738 | 18.33° C | 55% | 1017.6 hPa | 178.82 mm | - | - | - |
| 1777879438 | 18.33° C | 55% | 1017.6 hPa | 190.25 mm | - | - | - |
| 1777879138 | 17.78° C | 55% | 1017.5 hPa | 146.81 mm | - | - | - |
| 1777878838 | 17.78° C | 55% | 1017.5 hPa | 204.22 mm | - | - | - |
| 1777878538 | 18.33° C | 55% | 1017.4 hPa | 198.12 mm | - | - | - |
| 1777878238 | 18.33° C | 56% | 1017.5 hPa | 152.91 mm | - | - | - |
| 1777877938 | 17.78° C | 56% | 1017.5 hPa | 87.63 mm | - | - | - |
* Rain latest hour (hover to see other rain measurements)
** Current wind speed in m/s (hover to see current wind gust speed)